Flag for Australia Weather past 2 weeks in Tamworth, New South Wales, Australia

Now
64 °F

Clear.


Feels Like: 64 °F
Forecast: 44 / 61 °F
Wind: 6 mph from Northwest

Location: Tamworth Airport

Current Time: Jul 31, 2014 at 5:36:43 PM

Latest Report: Jul 31, 2014 at 5:00 PM


Visibility: N/A

Pressure: 29.92 "Hg

Humidity: 32%

Dew point: 34 °F

Location of TamworthLocation

Historic Weather in Tamworth — Graph

°F

Tamworth temperature yesterday

Maximum temperature yesterday: 68 °F (at 3:00 PM)
Minimum temperature yesterday: 34 °F (at 6:00 AM)
Average temperature yesterday: 51 °F

Past Weeks' High & Low Weather Summary

 TemperatureHumidityPressure
High72 °F (Jul 25, 12:30 PM)94% (Jul 26, 7:30 PM)30.30 "Hg (Jul 26, 7:30 PM)
Low27 °F (Jul 19, 7:00 AM)25% (Jul 31, 1:00 PM)29.89 "Hg (Jul 18, 4:00 AM)
Average49 °F70%30.16 "Hg
* Reported Jul 16 4:00 PM — Jul 31 4:00 PM, Tamworth, Weather by CustomWeather, © 2014

Note: Actual official high and low records may vary slightly from our data, if they occured in-between our weather recording intervals... More about our weather records

Advertising

Tamworth weather history for previous 24 hours

 ConditionsComfort  
Time TempWeatherWind HumidityBarometerVisibility
4:00 PM
Jul 31
70 °FSunny.10 mph27%29.92 "HgN/A
3:00 PM70 °FSunny.8 mph27%29.95 "HgN/A
2:30 PM70 °FSunny.9 mph27%29.95 "HgN/A
2:00 PM70 °FSunny.8 mph27%29.98 "HgN/A
1:00 PM72 °FSunny.7 mph25%30.01 "HgN/A
12:30 PM70 °FSunny.10 mph27%30.04 "HgN/A
12:00 PM68 °FSunny.9 mph30%30.07 "HgN/A
11:00 AM63 °FSunny.6 mph39%30.09 "HgN/A
10:00 AM55 °FSunny.5 mph55%30.12 "HgN/A
9:30 AM52 °FSunny.5 mph62%30.15 "HgN/A
9:00 AM48 °FSunny.6 mph71%30.15 "HgN/A
8:30 AM45 °FSunny.3 mph71%30.15 "HgN/A
8:00 AM43 °FSunny.5 mph76%30.15 "HgN/A
7:00 AM37 °FSunny.3 mph87%30.12 "HgN/A
6:30 AM36 °FSunny.1 mph87%30.12 "HgN/A
6:00 AM39 °FSunny.3 mph81%30.12 "HgN/A
5:30 AM37 °FClear.6 mph87%30.12 "HgN/A
5:00 AM37 °FClear.6 mph87%30.12 "HgN/A
4:30 AM37 °FClear.5 mph87%30.12 "HgN/A
4:00 AM37 °FClear.6 mph87%30.12 "HgN/A
3:30 AM37 °FClear.5 mph87%30.12 "HgN/A
3:00 AM37 °FClear.3 mph87%30.12 "HgN/A
2:30 AM36 °FClear.3 mph75%30.12 "HgN/A
2:00 AM41 °FClear.No wind81%30.12 "HgN/A
1:00 AM41 °FClear.3 mph87%30.12 "HgN/A
12:30 AM41 °FPassing clouds.No wind81%30.12 "HgN/A
12:00 AM39 °FClear.3 mph81%30.15 "HgN/A
11:00 PM
Jul 30
43 °FClear.6 mph76%30.15 "HgN/A
10:30 PM45 °FPassing clouds.No wind76%30.15 "HgN/A
10:00 PM45 °FClear.No wind71%30.15 "HgN/A
9:00 PM46 °FClear.3 mph66%30.15 "HgN/A
8:30 PM50 °FClear.3 mph54%30.15 "HgN/A
8:00 PM54 °FClear.2 mph54%30.15 "HgN/A
7:30 PM52 °FClear.No wind58%30.15 "HgN/A
7:00 PM54 °FClear.6 mph54%30.12 "HgN/A
6:30 PM55 °FClear.3 mph47%30.12 "HgN/A
6:00 PM57 °FClear.5 mph48%30.12 "HgN/A
5:00 PM64 °FClear.6 mph34%30.12 "HgN/A
Weather by CustomWeather, © 2014

See weather overviewHow to use our weather pages